星链-6226 (STARLINK-6226 )

导读

STARLINK-6226是美国太空探索技术公司(SpaceX)星链互联网卫星星座中的一员,于2023年5月14日发射入轨。星链项目旨在为全球提供高速低延迟宽带互联网服务,该卫星加入星座后,进一步扩充了星链卫星网络规模,提升了全球尤其是偏远地区的互联网覆盖能力。

Basic Information
目录编号:
56544
目录名称:
STARLINK-6226
国际标识:
2023-065AT
轨道中心:
EARTH
卫星名称:
星链-6226
卫星全名:
星链-6226 (STARLINK-6226 )
卫星状态:
在轨 (已飞行1209 天)
发射日期:
2023-05-14 UTC
国别 :
美国 (US)
星等 :
--
Orbit Information
数据来源 国际轨道数据 AOE轨道数据
星历时间 2026-09-03T11:07:35+0800
1天前
查看轨道信息
2026-09-01T02:00:00+0800
3天前
查看轨道信息
半长轴 6861.231km 6861.192km
偏心率 0.0001278 0.0001466
轨道倾角 43.004° 43.003°
近地点辐角 266.322° 294.395°
升交点赤经 301.141° 314.588°
平近点角 93.748° 280.603°
近地点 482.217km 482.049km
远地点 483.971km 484.061km
周期 94.268分钟 94.267分钟
每日圈数 15.275652 15.275781
Detailed Information
固有亮度:
5
最大亮度:
2.5
卫星平台:
Starlink v1.5
覆盖范围:
全球
运营商:
太空探索技术公司
运营商所在国:
美国
制造商(研发单位):
太空探索技术公司
制造商所在国:
美国
使用方式:
暂无
Satellite Introduction
星链(Starlink)计划是由太空探索技术公司(SpaceX)提出的一个巨型低轨卫星互联网星座项目,计划在2019年至2024年间在太空搭建由约1.2万颗卫星组成的“星链”网络,其中1584颗将部署在地球上空550千米处的近地轨道,并从2020年开始工作。该卫星仍在工作。
2D Orbit Map
3D Orbit Map
Orbit Altitude Analysis Chart
Orbit Inclination Analysis Chart
Orbit Comprehensive Analysis Chart
View Comprehensive Chart
Conjunction Data List
Event ID Objects TCA Miss Dist (km) Collision Risk Probability Collision Risk Index (CRI) Action
CDM_260904-131605-654406-742421
2026-09-04T
13:16:55+0000
1.143 km
极远距离
3.586426E-6 低风险 0.46
CDM_260904-212005-654405-674322
2026-09-04T
21:20:07+0000
2.006 km
极远距离
2.751217E-6 低风险 0.44
CDM_260904-153805-654406-742421
2026-09-04T
15:38:08+0000
1.459 km
极远距离
1.656087E-6 低风险 0.39
CDM_260904-140305-654406-742422
2026-09-04T
14:03:59+0000
2.140 km
极远距离
6.408986E-7 极低风险 0.31
CDM_260904-145105-654406-742421
2026-09-04T
14:51:04+0000
2.450 km
极远距离
5.076572E-7 极低风险 0.29